Regional Weather Roundup
Issued by NWS

Home | Current Version | Previous Version | Graphics & Text | Print | Product List | Glossary On
Versions: 1 2 3 4 5 6 7 8 9 10 11 12 13 14 15 16 17 18 19 20 21 22 23 24 25 26 27 28 29 30 31 32 33 34 35 36 37 38 39 40 41 42 43 44 45 46 47 48 49 50
662
ASUS45 KBOU 071907
RWRCO

WEATHER ROUNDUP FOR COLORADO
NATIONAL WEATHER SERVICE DENVER/BOULDER CO
1200 PM MST WED DEC 07 2016

NOTE: "FAIR" INDICATES FEW OR NO CLOUDS BELOW 12000 FEET WITH NO
SIGNIFICANT WEATHER AND/OR OBSTRUCTIONS TO VISIBILITY.

COZ001>005-013-030-031-072000-
...NORTHWEST COLORADO...

CITY           SKY/WX    TMP DP  RH WIND       PRES   REMARKS
CRAIG          CLOUDY    19   5  54 NW8       30.15R WCI   9
HAYDEN         FAIR      12   1  62 W16       30.10S WCI  -4
MEEKER         FAIR      15  10  80 SW7       30.12S WCI   5
MOUNT WERNER   NOT AVBL
STEAMBOAT SPGS PTSUNNY   15   3  59 SW13G22   30.07S WCI   1
WALDEN           N/A     10   0  61 CALM      29.98S
$$

COZ006>008-011-072000-
...WEST CENTRAL VALLEYS...

CITY           SKY/WX    TMP DP  RH WIND       PRES   REMARKS
GRAND JUNCTION FAIR      31  12  45 CALM      30.16S
MONTROSE       FAIR      27   6  41 N12G17    30.15F WCI  17
EAGLE          PTSUNNY   19  10  68 W15       30.09S WCI   5
RIFLE          CLOUDY    27   9  46 NW8       30.14S WCI  19
DELTA          NOT AVBL
NUCLA          NOT AVBL
$$

COZ017>023-064>068-072000-
...SOUTHWEST COLORADO...

CITY           SKY/WX    TMP DP  RH WIND       PRES   REMARKS
DURANGO        FAIR      33  -5  19 W21G29    30.01F WCI  21
CORTEZ         FAIR      33  -3  21 NW9       30.09F WCI  25
PAGOSA SPRINGS FAIR      30   4  33 S9        29.98F WCI  21
TELLURIDE      FAIR      17  -1  45 SW7       30.02S WCI   7
WOLF CREEK PAS PTSUNNY    9   5  85 SW16G26   29.90S WCI  -9
$$

COZ009-010-012-014-032>034-037-058>063-072000-
...CENTRAL COLORADO...

CITY           SKY/WX    TMP DP  RH WIND       PRES   REMARKS
ASPEN          FLURRIES  15   6  67 NW12      30.00S WCI   2
BUENA VISTA    CLOUDY    23  -9  24 W16G25    29.95F WCI   9
COPPER MTN     NOT AVBL
BERTHOUD PASS  SNOW      -9 -22  54 N16G35    29.73R VSB 1/4 WCI -32
COTTONWOOD PAS FAIR      16 -13  27 SW16G25   29.88F WCI   0
GUNNISON       PTSUNNY   22  -2  35 W17       30.01F WCI   8
KREMMLING      CLOUDY    21   7  53 CALM      30.04S
LEADVILLE      LGT SNOW   5  -8  55 NW17G28   29.88S WCI -14
MONARCH PASS   LGT SNOW   1  -4  78 W33G44    29.90S VSB 1   WCI -25
SALIDA         FAIR      26  -2  29 NW15G25   30.05S WCI  14
SUNLIGHT       CLOUDY     5   1  85 SW5G21    29.95R FOG     WCI  -4
WILKERSON PASS CLOUDY     9   0  66 W5        29.85R WCI   0
$$

COZ069>075-072000-
...SAN LUIS VALLEY/SANGRE DE CRISTO MOUNTAINS...

CITY           SKY/WX    TMP DP  RH WIND       PRES   REMARKS
ALAMOSA        FAIR      28   4  35 NE8       29.96F WCI  20
LA VETA PASS   FAIR      19   5  53 NE14G24   29.88F WCI   6
SAGUACHE       FAIR      27  -8  22 N23G31    29.97F WCI  12
$$

COZ035-036-038>040-072000-
...NORTHERN COLORADO FRONT RANGE...

CITY           SKY/WX    TMP DP  RH WIND       PRES   REMARKS
DENVER INTL AP LGT SNOW  10   3  73 VRB6      30.18S WCI   0
DMNS CITY PARK   N/A     10   3  73 NE8       30.19S WCI  -2
AURORA         PTSUNNY    9   2  76 NE5       30.16F WCI   0
FRONT RANGE AP NOT AVBL
ERIE MUNI ARPT CLOUDY    12   4  71 NE6       30.21F WCI   2
BOULDER MUN AP LGT SNOW  12   5  73 E3        30.19F
CENTENNIAL     FLURRIES  10   3  73 NE6       30.14F WCI   0
BROOMFIELD     CLOUDY    10   5  79 NE5       30.17F FOG     WCI   2
FORT COLLINS   CLOUDY    10   3  72 NE6       30.23S WCI   1
LONGMONT       CLOUDY    16   5  62 NE5       30.23F WCI   9
$$

COZ041-046-047-076>085-087-088-072000-
...PIKES PEAK/PALMER DIVIDE AND SOUTHERN FOOTHILLS...

CITY           SKY/WX    TMP DP  RH WIND       PRES   REMARKS
COLO. SPRINGS  PTSUNNY   20   6  55 CALM      30.07F
A. F. ACADEMY  CLOUDY    15   5  63 N6        30.04F WCI   6
SCHRIEVER AFB  NOT AVBL
ELLICOTT       LGT SNOW N/A N/A N/A NE7       30.07S
FALCON         FAIR      15   5  64 N9        30.05S WCI   4
FORT CARSON    CLOUDY    20   8  57 SE3       30.07F
LIMON          CLOUDY    14   8  77 N10       30.15S WCI   1
MONUMENT HILL  FLURRIES  10   5  79 N8        30.04F WCI  -1
TRINIDAD       LGT SNOW  19  11  70 N9        30.11F VSB 3/4 WCI   8
$$

COZ042>045-048>051-090-091-072000-
...NORTHEAST COLORADO...

CITY           SKY/WX    TMP DP  RH WIND       PRES   REMARKS
GREELEY ARPT   CLOUDY    10   2  69 NE8       30.26S WCI  -2
AKRON          LGT SNOW  10   4  76 N15       30.22R WCI  -7
BURLINGTON     LGT SNOW  15   7  70 N15       30.23S WCI   0
WRAY           NOT AVBL
STERLING       CLOUDY    14   7  73 N13G18    30.27S HAZE    WCI   0
HOLYOKE        LGT SNOW  21  10  63 NW15      30.28S WCI   8
FORT MORGAN    CLOUDY    14   5  67 N13       30.25F WCI   0
$$

COZ086-089-092>099-072000-
...SOUTHEAST COLORADO...

CITY           SKY/WX    TMP DP  RH WIND       PRES   REMARKS
PUEBLO         CLOUDY    24  10  55 E7        30.16S WCI  16
LA JUNTA       FLURRIES  21  13  71 E9        30.21R WCI  11
LAMAR          LGT SNOW  20  13  74 NE12      30.22R WCI   8
SPRINGFIELD      N/A     21  13  71 N15G21    30.14R WCI   8
$$




USA.gov is the U.S. government's official web portal to all federal, state and local government web resources and services.